FW8061 Weather Reports


Display with metric or nautical units.
time (UTC)temp
F
wind
direction
speed
MPH
gust
MPH
rain 1hr
in
rain 24hr
in
rain mn
in
humidity
%
barometer
mb
20260505225017 67 254 4.0 11.0 0.00 0.00 0.00 57 1002.9
20260505224020 67 250 4.0 10.0 0.00 0.00 0.00 58 1002.8
20260505223040 67 275 5.0 17.0 0.00 0.00 0.00 59 1002.6
20260505222017 67 259 4.0 9.0 0.00 0.00 0.00 59 1002.4
20260505221018 67 227 3.0 11.0 0.00 0.00 0.00 58 1002.2
20260505220021 67 265 3.0 9.0 0.00 0.00 0.00 57 1002.2
20260505215018 68 244 3.0 8.0 0.00 0.00 0.00 56 1001.9
20260505214018 68 245 4.0 9.0 0.00 0.00 0.00 59 1001.8
20260505213021 67 283 4.0 11.0 0.00 0.00 0.00 64 1001.6
20260505212040 67 267 3.0 10.0 0.00 0.00 0.00 64 1001.4
20260505211019 68 300 5.0 10.0 0.00 0.00 0.00 65 1001.4
20260505210019 69 302 5.0 12.0 0.00 0.00 0.00 64 1001.1
20260505205019 70 203 3.0 9.0 0.00 0.00 0.00 58 1000.6
20260505204039 70 204 4.0 10.0 0.00 0.00 0.00 58 1000.4
20260505203020 71 185 4.0 10.0 0.00 0.00 0.00 59 1000.2
20260505202118 71 195 5.0 9.0 0.00 0.00 0.00 59 1000.2
20260505201020 70 185 5.0 10.0 0.00 0.00 0.00 61 1000.0
20260505200020 70 189 3.0 9.0 0.00 0.00 0.00 65 1000.1
20260505195017 69 190 5.0 11.0 0.00 0.00 0.00 66 1000.2
20260505194020 68 187 5.0 9.0 0.00 0.00 0.00 68 1000.1
20260505193017 68 180 4.0 10.0 0.00 0.00 0.00 68 1000.1
20260505192017 69 194 6.0 14.0 0.00 0.00 0.00 68 1000.0
20260505191018 71 182 7.0 16.0 0.00 0.00 0.00 64 999.9
20260505190018 71 191 5.0 10.0 0.00 0.00 0.00 59 999.8
20260505185018 70 194 4.0 10.0 0.00 0.00 0.00 61 999.9
20260505184042 69 192 5.0 10.0 0.00 0.00 0.00 63 1000.1
20260505183021 69 191 4.0 10.0 0.00 0.00 0.00 64 1000.1
20260505182018 69 219 4.0 12.0 0.00 0.00 0.00 63 1000.4
20260505181018 69 224 5.0 9.0 0.00 0.00 0.00 62 1000.3
20260505180019 70 210 6.0 13.0 0.00 0.00 0.00 60 1000.3
20260505175020 70 206 5.0 11.0 0.00 0.00 0.00 60 1000.2
20260505174019 70 233 5.0 11.0 0.00 0.00 0.00 60 1000.1
20260505173016 71 194 4.0 12.0 0.00 0.00 0.00 61 1000.0
20260505172019 70 195 3.0 8.0 0.00 0.00 0.00 62 999.8
20260505171020 69 179 3.0 7.0 0.00 0.00 0.00 64 1000.0
20260505170017 69 189 3.0 9.0 0.00 0.00 0.00 64 1000.0
20260505165019 68 198 3.0 10.0 0.00 0.00 0.00 65 1000.1
20260505164020 68 188 3.0 9.0 0.00 0.00 0.00 68 1000.1
20260505163037 69 189 4.0 9.0 0.00 0.00 0.00 69 1000.0
20260505162017 69 186 3.0 10.0 0.00 0.00 0.00 64 1000.0
20260505161041 70 190 3.0 7.0 0.00 0.00 0.00 65 1000.1
20260505153018 69 193 3.0 8.0 0.00 0.00 0.00 66 1000.4
20260505152018 68 190 4.0 8.0 0.00 0.00 0.00 68 1000.4
20260505151019 67 185 5.0 10.0 0.00 0.00 0.00 68 1000.4
20260505125021 54 190 4.0 8.0 0.00 0.00 0.00 87 1001.6
20260505124021 54 192 4.0 6.0 0.00 0.00 0.00 89 1001.6
20260505123021 55 179 4.0 8.0 0.00 0.00 0.00 89 1001.8
20260505122021 56 191 5.0 8.0 0.00 0.00 0.00 85 1002.0
20260505121043 57 201 3.0 9.0 0.00 0.00 0.00 78 1002.3
20260505120022 58 195 3.0 6.0 0.00 0.00 0.00 75 1002.2
20260505115023 59 183 5.0 8.0 0.00 0.00 0.00 67 1002.0
20260505114042 59 181 5.0 9.0 0.00 0.00 0.00 66 1001.6
20260505113019 59 180 5.0 11.0 0.00 0.00 0.00 65 1001.5
20260505112023 58 190 4.0 9.0 0.00 0.00 0.00 66 1001.5
20260505111016 58 200 4.0 9.0 0.00 0.00 0.00 67 1001.3
20260505102023 57 201 4.0 8.0 0.00 0.00 0.00 66 1001.1
20260505101017 56 198 4.0 7.0 0.00 0.00 0.00 67 1001.0
20260505100040 56 196 5.0 9.0 0.00 0.00 0.00 67 1001.1
20260505095018 56 192 4.0 8.0 0.00 0.00 0.00 67 1001.2
20260505094018 56 196 4.0 6.0 0.00 0.00 0.00 67 1001.3
20260505093019 56 200 3.0 7.0 0.00 0.00 0.00 67 1001.4
20260505092019 56 201 3.0 6.0 0.00 0.00 0.00 67 1001.4
20260505091018 56 205 4.0 8.0 0.00 0.00 0.00 66 1001.4
20260505090019 56 199 5.0 9.0 0.00 0.00 0.00 66 1001.4
20260505085019 56 191 4.0 8.0 0.00 0.00 0.00 66 1001.3
20260505084020 56 198 4.0 7.0 0.00 0.00 0.00 67 1001.4
20260505083019 56 199 4.0 7.0 0.00 0.00 0.00 67 1001.4
20260505082019 56 208 4.0 9.0 0.00 0.00 0.00 67 1001.5
20260505081021 56 193 4.0 7.0 0.00 0.00 0.00 68 1001.3
20260505080020 55 204 4.0 7.0 0.00 0.00 0.00 69 1001.4
20260505075021 55 195 4.0 7.0 0.00 0.00 0.00 70 1001.4
20260505074020 55 191 4.0 7.0 0.00 0.00 0.00 70 1001.5
20260505073040 55 196 3.0 5.0 0.00 0.00 0.00 70 1001.6
20260505072040 55 195 3.0 7.0 0.00 0.00 0.00 69 1001.7
20260505071022 56 213 4.0 8.0 0.00 0.00 0.00 67 1001.9
20260505070022 56 207 3.0 6.0 0.00 0.00 0.00 66 1001.9
20260505065021 57 193 3.0 6.0 0.00 0.00 0.00 66 1001.8
20260505064021 57 205 3.0 7.0 0.00 0.00 0.00 65 1001.8
20260505063022 57 190 3.0 6.0 0.00 0.00 0.00 64 1001.8
20260505062041 57 201 3.0 7.0 0.00 0.00 0.00 65 1001.8
20260505061022 57 200 3.0 5.0 0.00 0.00 0.00 64 1001.8
20260505060022 58 197 3.0 7.0 0.00 0.00 0.00 64 1001.9
20260505055023 58 195 3.0 7.0 0.00 0.00 0.00 63 1002.0
20260505054022 58 198 3.0 7.0 0.00 0.00 0.00 63 1002.1
20260505053022 58 199 3.0 6.0 0.00 0.00 0.00 63 1002.2
20260505052023 58 206 3.0 6.0 0.00 0.00 0.00 64 1002.3
20260505051016 58 198 3.0 6.0 0.00 0.00 0.00 64 1002.4
20260505041019 58 203 3.0 6.0 0.00 0.00 0.00 65 1002.7
20260505040038 58 196 2.0 6.0 0.00 0.00 0.00 66 1002.8
20260505035018 57 188 2.0 5.0 0.00 0.00 0.00 67 1002.7
20260505034018 57 188 2.0 4.0 0.00 0.00 0.00 69 1002.8
20260505033019 57 208 2.0 4.0 0.00 0.00 0.00 69 1002.8
20260505032040 56 201 3.0 6.0 0.00 0.00 0.00 70 1003.0
20260505031017 55 197 2.0 3.0 0.00 0.00 0.00 73 1003.0
20260505030020 55 203 1.0 2.0 0.00 0.00 0.00 73 1003.1
20260505025019 55 193 1.0 3.0 0.00 0.00 0.00 74 1003.2
20260505024017 55 259 1.0 2.0 0.00 0.00 0.00 73 1003.2
20260505023019 54 176 1.0 3.0 0.00 0.00 0.00 74 1003.2
20260505022017 55 189 1.0 2.0 0.00 0.00 0.00 74 1003.3
20260505021016 56 0.0 0.0 0.00 0.00 0.00 74 1003.5
20260505020018 56 284 0.0 1.0 0.00 0.00 0.00 73 1003.5
20260505015018 57 228 0.0 1.0 0.00 0.00 0.00 73 1003.5
20260505014037 57 220 0.0 2.0 0.00 0.00 0.00 72 1003.5
20260505013019 57 196 0.0 1.0 0.00 0.00 0.00 72 1003.5
20260505012017 58 0.0 0.0 0.00 0.00 0.00 71 1003.5
20260505011018 58 212 1.0 2.0 0.00 0.00 0.00 71 1003.7
20260505010019 58 180 1.0 3.0 0.00 0.00 0.00 70 1003.6
20260505005058 59 180 1.0 4.0 0.00 0.00 0.00 70 1003.6
20260505004018 59 169 2.0 4.0 0.00 0.00 0.00 69 1003.5
20260505003018 59 163 2.0 5.0 0.00 0.00 0.00 69 1003.5
20260505002018 60 165 2.0 5.0 0.00 0.00 0.00 68 1003.5
20260505001058 60 159 3.0 6.0 0.00 0.00 0.00 67 1003.4
20260505000039 60 162 3.0 5.0 0.00 0.00 0.00 67 1003.3
20260504235019 61 161 3.0 5.0 0.00 0.00 0.00 66 1003.2
20260504234018 61 168 3.0 6.0 0.00 0.00 0.00 65 1003.2
20260504233039 61 169 3.0 5.0 0.00 0.00 0.00 65 1003.1
20260504232020 61 163 3.0 7.0 0.00 0.00 0.00 66 1003.1
20260504231018 61 163 3.0 5.0 0.00 0.00 0.00 65 1003.2
20260504230021 61 169 3.0 7.0 0.00 0.00 0.00 64 1003.3